Voltar ao catálogo

FENGYUN 1C DEB

AtivoSSO
NORAD 30684·DEBRIS·🇨🇳 China

Lançado May 10, 1999 de Taiyuan Satellite Launch Center

Loading…

Próximas Passagens (próximas 24 horas)

TLE

AtualizadoSource: Space-Track

Época: Sep 14, 2026, 02:04 UTC

1 30684U 99025AQS 26257.08658231  .00000752  00000-0  78563-3 0  9997
2 30684  99.5112 299.3427 0233702 282.1948  75.3112 13.67329639973914

Acompanhe FENGYUN 1C DEB em tempo real com AllMySat

Download on the App Store